Flag for Canada Weather past 2 weeks in Fort Simpson, Northwest Territories, Canada

Now
75 °F

Mostly cloudy.


Feels Like: 78 °F
Forecast: 58 / 81 °F
Wind: 5 mph from Northeast

Location: Fort Simpson

Current Time: Jul 1, 2015 at 7:59:44 PM

Latest Report: Jul 1, 2015 at 7:00 PM


Visibility: 8 mi

Pressure: 29.86 "Hg

Humidity: 44%

Dew point: 52 °F

Location of Fort SimpsonLocation

Historic Weather in Fort Simpson — Graph

°F

Fort Simpson temperature yesterday

Maximum temperature yesterday: 81 °F (at 5:00 PM)
Minimum temperature yesterday: 64 °F (at 4:00 AM)
Average temperature yesterday: 71 °F

Past Weeks' High & Low Weather Summary

 TemperatureHumidityPressure
High86 °F (Jun 25, 3:00 PM)100% (Jun 21, 6:00 AM)30.15 "Hg (Jun 21, 6:00 AM)
Low39 °F (Jun 17, 5:00 AM)20% (Jun 19, 7:00 PM)29.68 "Hg (Jun 26, 5:00 PM)
Average67 °F53%29.87 "Hg
* Reported Jun 16 6:00 PM — Jul 1 6:00 PM, Fort Simpson, Weather by CustomWeather, © 2015

Note: Actual official high and low records may vary slightly from our data, if they occured in-between our weather recording intervals... More about our weather records

Advertising

Fort Simpson weather history for previous 24 hours

 ConditionsComfort  
Time TempWeatherWind HumidityBarometerVisibility
6:00 PM
Wed, Jul 1
77 °FMore clouds than sun.6 mph39%29.86 "Hg10 mi
5:00 PM75 °FMostly cloudy.7 mph41%29.86 "Hg8 mi
4:00 PM82 °FBroken clouds.12 mph26%29.85 "Hg10 mi
3:00 PM81 °FPartly sunny.7 mph34%29.86 "Hg6 mi
2:00 PM77 °FOvercast.5 mph47%29.87 "Hg4 mi
1:00 PM75 °FMostly cloudy.7 mph57%29.89 "Hg4 mi
12:00 PM72 °FPartly sunny.6 mph69%29.90 "Hg8 mi
11:00 AM70 °FScattered clouds.5 mph73%29.92 "Hg8 mi
10:00 AM66 °FScattered clouds.2 mph83%29.93 "Hg10 mi
9:00 AM64 °FScattered clouds.2 mph88%29.94 "Hg8 mi
8:00 AM61 °FPartly sunny.2 mph94%29.94 "Hg8 mi
7:00 AM61 °FBroken clouds.2 mph94%29.95 "Hg8 mi
6:00 AM61 °FLight rain. Partly sunny.3 mph94%29.94 "Hg6 mi
5:00 AM63 °FPassing clouds.7 mph83%29.96 "Hg6 mi
4:00 AM63 °FPassing clouds.7 mph88%29.94 "Hg6 mi
3:00 AM64 °FPassing clouds.3 mph78%29.94 "Hg6 mi
2:00 AM66 °FPassing clouds.3 mph68%29.93 "Hg6 mi
1:00 AM68 °FPassing clouds.3 mph64%29.92 "Hg10 mi
12:00 AM68 °FPartly sunny.5 mph64%29.90 "Hg10 mi
11:00 PM
Tue, Jun 30
70 °FBroken clouds.8 mph60%29.90 "Hg10 mi
10:00 PM73 °FPartly sunny.8 mph53%29.88 "Hg8 mi
9:00 PM75 °FBroken clouds.7 mph54%29.86 "Hg10 mi
8:00 PM77 °FBroken clouds.8 mph47%29.85 "Hg8 mi
7:00 PM79 °FBroken clouds.10 mph45%29.84 "Hg10 mi
Weather by CustomWeather, © 2015

See weather overviewHow to use our weather pages